Regional Weather Roundup
Issued by NWS

Home | Current Version | Previous Version | Text Only | Print | Product List | Glossary Off
Versions: 1 2 3 4 5 6 7 8 9 10 11 12 13 14 15 16 17 18 19 20 21 22 23 24 25 26 27 28 29 30 31 32 33 34 35 36 37 38 39 40 41 42 43 44 45 46 47 48 49 50

000
ASUS43 KBIS 300210
RWRND

NORTH DAKOTA REGIONAL WEATHER ROUNDUP
NATIONAL WEATHER SERVICE BISMARCK ND
900 PM CDT THU SEP 29 2016

NOTE: "FAIR" INDICATES FEW OR NO CLOUDS BELOW 12,000 FEET WITH NO
SIGNIFICANT WEATHER AND/OR OBSTRUCTIONS TO VISIBILITY.


NDZ001>003-009>011-017-300300-
NORTHWEST NORTH DAKOTA

CITY           SKY/WX    TMP DP  RH WIND       PRES   REMARKS
WILLISTON      CLEAR     65  44  46 SE9       30.13S
MINOT          CLEAR     59  46  62 SE12      30.22S
MINOT AFB      CLEAR     57  46  67 SE10      30.21S
$$

NDZ018>021-031>035-040>046-300300-
SOUTHWEST NORTH DAKOTA

CITY           SKY/WX    TMP DP  RH WIND       PRES   REMARKS
BISMARCK       CLEAR     55  45  68 SE9       30.26R
DICKINSON      CLEAR     60  41  49 SE17      30.15S
GARRISON         N/A     56  48  74 E8        30.22S
HETTINGER ARPT CLEAR     61  42  49 SE15      30.19R
$$

NDZ004>008-012>016-024-026-027-054-300300-
NORTHEAST NORTH DAKOTA

CITY           SKY/WX    TMP DP  RH WIND       PRES   REMARKS
GRAND FORKS    CLEAR     54  45  71 SE7       30.36S
GRND FRKS AFB  CLEAR     52  45  76 SE8       30.36S
DEVILS LAKE    CLEAR     58  48  69 SE13      30.33R
$$

NDZ022-023-025-028>030-036>039-047>053-300300-
SOUTHEAST NORTH DAKOTA

CITY           SKY/WX    TMP DP  RH WIND       PRES   REMARKS
FARGO          CLEAR     56  45  66 E8        30.37S
JAMESTOWN      CLEAR     53  46  77 SE8       30.33R
$$





USA.gov is the U.S. government's official web portal to all federal, state and local government web resources and services.